CCGS Cape Naden — CFN5482 — position and weather

sailwx.info

Track history (hours):
 
Tides and Currents Weather Stations Pressure Air Temp Water Temp Dewpoint Dewpoint Depression Visibility Wind Speed Wind Dir Waves Ship Positions

CCGS Cape Naden

Last reported at 2014-Oct-25 19:33 UTC. Time now 2014-Oct-25 19:51 UTC.
Position N 48°51' W 123°30'.

Length 15 m; draft 0.8 m.

Type: SAR. MMSI: 316017162.

Date/timePositionNaut miles runAvg speedWind from/ knotsBaromVisibWave heightAir tempDewpointWater temp
2014-Oct-25 19:33N 48°51' W 123°30'0 0.1
2014-Oct-25 18:33N 48°51' W 123°30'0 0.1
2014-Oct-25 17:33N 48°51' W 123°30'0 0.0
2014-Oct-25 16:33N 48°51' W 123°30'0 0.0
2014-Oct-25 15:33N 48°51' W 123°30'0 0.0
2014-Oct-25 14:33N 48°51' W 123°30'0 0.0
2014-Oct-25 13:33N 48°51' W 123°30'0 0.0
2014-Oct-25 12:33N 48°51' W 123°30'0 0.0
2014-Oct-25 11:33N 48°51' W 123°30'0 0.0
2014-Oct-25 10:33N 48°51' W 123°30'0 0.0
2014-Oct-25 09:33N 48°51' W 123°30'0 0.0
2014-Oct-25 08:33N 48°51' W 123°30'0 0.0
2014-Oct-25 07:33N 48°51' W 123°30'0 0.0
2014-Oct-25 06:33N 48°51' W 123°30'0 0.0
2014-Oct-25 05:27N 48°51' W 123°30'0 0.0
2014-Oct-25 04:33N 48°51' W 123°30'0 0.0
2014-Oct-25 03:33N 48°51' W 123°30'0 0.0
2014-Oct-25 02:33N 48°51' W 123°30'0 0.0
2014-Oct-25 01:33N 48°51' W 123°30'0 0.0
2014-Oct-25 00:33N 48°51' W 123°30'6 3.0
2014-Oct-24 22:25N 48°47' W 123°23'9 9.9
2014-Oct-24 21:33N 48°39' W 123°27'0 0.0
2014-Oct-24 20:33N 48°39' W 123°27'0 0.0
2014-Oct-24 19:33N 48°39' W 123°27'7 7.1
2014-Oct-24 18:33N 48°46' W 123°23'4 0.2
2014-Oct-23 20:18N 48°49' W 123°25'6 7.8
2014-Oct-23 19:30N 48°47' W 123°16'0 0.5
2014-Oct-23 18:33N 48°46' W 123°16'11 0.3
2014-Oct-22 06:21N 48°51' W 123°30'0 0.0
2014-Oct-22 05:33N 48°51' W 123°30'0 0.0
2014-Oct-22 02:20N 48°51' W 123°30'0 0.0
2014-Oct-21 02:18N 48°51' W 123°30'  
2014-Oct-16 00:11N 48°47' W 123°23'  
Track history (hours):
 
Tides and Currents Weather Stations Pressure Air Temp Water Temp Dewpoint Dewpoint Depression Visibility Wind Speed Wind Dir Waves Ship Positions

CCGS Cape Naden

Last reported at 2014-Oct-25 19:33 UTC. Time now 2014-Oct-25 19:51 UTC.
Position N 48°51' W 123°30'.

Length 15 m; draft 0.8 m.

Type: SAR. MMSI: 316017162.

Date/timePositionNaut miles runAvg speedWind from/ knotsBaromVisibWave heightAir tempDewpointWater temp
2014-Oct-25 19:33N 48°51' W 123°30'0 0.1
2014-Oct-25 18:33N 48°51' W 123°30'0 0.1
2014-Oct-25 17:33N 48°51' W 123°30'0 0.0
2014-Oct-25 16:33N 48°51' W 123°30'0 0.0
2014-Oct-25 15:33N 48°51' W 123°30'0 0.0
2014-Oct-25 14:33N 48°51' W 123°30'0 0.0
2014-Oct-25 13:33N 48°51' W 123°30'0 0.0
2014-Oct-25 12:33N 48°51' W 123°30'0 0.0
2014-Oct-25 11:33N 48°51' W 123°30'0 0.0
2014-Oct-25 10:33N 48°51' W 123°30'0 0.0
2014-Oct-25 09:33N 48°51' W 123°30'0 0.0
2014-Oct-25 08:33N 48°51' W 123°30'0 0.0
2014-Oct-25 07:33N 48°51' W 123°30'0 0.0
2014-Oct-25 06:33N 48°51' W 123°30'0 0.0
2014-Oct-25 05:27N 48°51' W 123°30'0 0.0
2014-Oct-25 04:33N 48°51' W 123°30'0 0.0
2014-Oct-25 03:33N 48°51' W 123°30'0 0.0
2014-Oct-25 02:33N 48°51' W 123°30'0 0.0
2014-Oct-25 01:33N 48°51' W 123°30'0 0.0
2014-Oct-25 00:33N 48°51' W 123°30'6 3.0
2014-Oct-24 22:25N 48°47' W 123°23'9 9.9
2014-Oct-24 21:33N 48°39' W 123°27'0 0.0
2014-Oct-24 20:33N 48°39' W 123°27'0 0.0
2014-Oct-24 19:33N 48°39' W 123°27'7 7.1
2014-Oct-24 18:33N 48°46' W 123°23'4 0.2
2014-Oct-23 20:18N 48°49' W 123°25'6 7.8
2014-Oct-23 19:30N 48°47' W 123°16'0 0.5
2014-Oct-23 18:33N 48°46' W 123°16'11 0.3
2014-Oct-22 06:21N 48°51' W 123°30'0 0.0
2014-Oct-22 05:33N 48°51' W 123°30'0 0.0
2014-Oct-22 02:20N 48°51' W 123°30'0 0.0
2014-Oct-21 02:18N 48°51' W 123°30'  
2014-Oct-16 00:11N 48°47' W 123°23'  

Dump ship's entire track history